Time,TemperatureF,DewpointF,PressureIn,WindDirection,WindDirectionDegrees,WindSpeedMPH,WindSpeedGustMPH,Humidity,HourlyPrecipIn,Conditions,Clouds,dailyrainin,SoftwareType,DateUTC
2013-04-19 00:02:00,64.3,57.3,29.64,East,89,2.0,2.0,78,0.00,,,0.00,Wunderground v.1.15,2013-04-19 04:02:00,
2013-04-19 00:03:00,64.3,57.3,29.63,East,79,2.0,2.0,78,0.00,,,0.00,Wunderground v.1.15,2013-04-19 04:03:00,
2013-04-19 00:07:00,64.2,57.2,29.64,ESE,113,2.0,3.0,78,0.00,,,0.00,Wunderground v.1.15,2013-04-19 04:07:00,
2013-04-19 00:10:00,64.2,57.2,29.63,East,83,2.0,2.0,78,0.00,,,0.00,Wunderground v.1.15,2013-04-19 04:10:00,
2013-04-19 00:16:00,64.0,57.0,29.62,East,86,2.0,2.0,78,0.00,,,0.00,Wunderground v.1.15,2013-04-19 04:16:00,
2013-04-19 00:22:00,63.9,57.3,29.62,NNW,335,1.0,1.0,79,0.00,,,0.00,Wunderground v.1.15,2013-04-19 04:22:00,
2013-04-19 00:30:00,63.8,57.2,29.61,ESE,116,1.0,2.0,79,0.00,,,0.00,Wunderground v.1.15,2013-04-19 04:30:00,
2013-04-19 00:35:00,63.7,57.1,29.60,East,82,2.0,4.0,79,0.00,,,0.00,Wunderground v.1.15,2013-04-19 04:35:00,
2013-04-19 00:42:00,63.6,57.0,29.60,East,82,2.0,2.0,79,0.00,,,0.00,Wunderground v.1.15,2013-04-19 04:42:00,
2013-04-19 00:47:00,63.6,57.0,29.59,East,84,1.0,2.0,79,0.00,,,0.00,Wunderground v.1.15,2013-04-19 04:47:00,
2013-04-19 00:53:00,63.5,56.9,29.59,SE,125,2.0,2.0,79,0.00,,,0.00,Wunderground v.1.15,2013-04-19 04:53:00,
2013-04-19 01:00:00,63.4,56.8,29.59,ESE,103,2.0,2.0,79,0.00,,,0.00,Wunderground v.1.15,2013-04-19 05:00:00,
2013-04-19 01:06:00,63.4,56.8,29.59,SE,128,2.0,2.0,79,0.00,,,0.00,Wunderground v.1.15,2013-04-19 05:06:00,
2013-04-19 01:11:00,63.4,56.8,29.59,SE,132,1.0,2.0,79,0.00,,,0.00,Wunderground v.1.15,2013-04-19 05:11:00,
2013-04-19 01:17:00,63.4,56.8,29.59,ESE,117,1.0,2.0,79,0.00,,,0.00,Wunderground v.1.15,2013-04-19 05:17:00,
2013-04-19 01:23:00,63.5,56.9,29.57,East,95,1.0,3.0,79,0.00,,,0.00,Wunderground v.1.15,2013-04-19 05:23:00,
2013-04-19 01:29:00,63.5,56.9,29.57,SE,145,1.0,3.0,79,0.00,,,0.00,Wunderground v.1.15,2013-04-19 05:29:00,
2013-04-19 01:35:00,63.5,56.9,29.57,SE,125,1.0,3.0,79,0.00,,,0.00,Wunderground v.1.15,2013-04-19 05:35:00,
2013-04-19 01:42:00,63.8,56.8,29.56,SSE,151,2.0,3.0,78,0.00,,,0.00,Wunderground v.1.15,2013-04-19 05:42:00,
2013-04-19 01:47:00,64.3,56.9,29.56,ESE,118,3.0,3.0,77,0.00,,,0.00,Wunderground v.1.15,2013-04-19 05:47:00,
2013-04-19 01:53:00,64.6,56.9,29.55,SSE,156,3.0,3.0,76,0.00,,,0.00,Wunderground v.1.15,2013-04-19 05:53:00,
2013-04-19 02:00:00,65.0,56.9,29.55,East,84,3.0,3.0,75,0.00,,,0.00,Wunderground v.1.15,2013-04-19 06:00:00,
2013-04-19 02:06:00,65.4,56.9,29.55,SE,139,3.0,5.0,74,0.00,,,0.00,Wunderground v.1.15,2013-04-19 06:06:00,
2013-04-19 02:12:00,65.9,56.6,29.55,East,99,3.0,4.0,72,0.00,,,0.00,Wunderground v.1.15,2013-04-19 06:12:00,
2013-04-19 02:17:00,66.5,56.4,29.54,SSE,150,3.0,6.0,70,0.00,,,0.00,Wunderground v.1.15,2013-04-19 06:17:00,
2013-04-19 02:22:00,67.4,56.1,29.54,SSW,210,4.0,4.0,67,0.00,,,0.00,Wunderground v.1.15,2013-04-19 06:22:00,
2013-04-19 02:29:00,68.6,55.5,29.53,SSE,152,4.0,8.0,63,0.00,,,0.00,Wunderground v.1.15,2013-04-19 06:29:00,
2013-04-19 02:36:00,69.4,54.9,29.52,South,170,4.0,10.0,60,0.00,,,0.00,Wunderground v.1.15,2013-04-19 06:36:00,
2013-04-19 02:42:00,70.4,54.9,29.52,East,82,6.0,11.0,58,0.00,,,0.00,Wunderground v.1.15,2013-04-19 06:42:00,
2013-04-19 02:47:00,70.8,54.8,29.52,ESE,118,6.0,11.0,57,0.00,,,0.00,Wunderground v.1.15,2013-04-19 06:47:00,
2013-04-19 02:53:00,71.1,54.6,29.51,SE,138,5.0,6.0,56,0.00,,,0.00,Wunderground v.1.15,2013-04-19 06:53:00,
2013-04-19 03:00:00,71.4,54.4,29.51,SSE,148,6.0,7.0,55,0.00,,,0.00,Wunderground v.1.15,2013-04-19 07:00:00,
2013-04-19 03:06:00,71.6,54.1,29.50,South,186,6.0,8.0,54,0.00,,,0.00,Wunderground v.1.15,2013-04-19 07:06:00,
2013-04-19 03:13:00,71.7,54.2,29.50,West,280,6.0,7.0,54,0.00,,,0.00,Wunderground v.1.15,2013-04-19 07:13:00,
2013-04-19 03:19:00,71.7,54.2,29.50,SSE,158,6.0,7.0,54,0.00,,,0.00,Wunderground v.1.15,2013-04-19 07:19:00,
2013-04-19 03:24:00,71.7,54.2,29.49,South,190,6.0,12.0,54,0.00,,,0.00,Wunderground v.1.15,2013-04-19 07:24:00,
2013-04-19 03:32:00,71.8,54.3,29.49,SSE,153,7.0,7.0,54,0.00,,,0.00,Wunderground v.1.15,2013-04-19 07:32:00,
2013-04-19 03:37:00,71.7,54.2,29.49,SSE,158,7.0,12.0,54,0.00,,,0.00,Wunderground v.1.15,2013-04-19 07:37:00,
2013-04-19 03:43:00,71.7,54.2,29.49,SSW,195,7.0,7.0,54,0.00,,,0.00,Wunderground v.1.15,2013-04-19 07:43:00,
2013-04-19 03:49:00,71.7,54.2,29.48,SSW,193,7.0,11.0,54,0.00,,,0.00,Wunderground v.1.15,2013-04-19 07:49:00,
2013-04-19 03:54:00,71.7,54.2,29.48,ESE,113,8.0,12.0,54,0.00,,,0.00,Wunderground v.1.15,2013-04-19 07:54:00,
2013-04-19 04:00:00,71.6,54.1,29.48,WNW,301,7.0,7.0,54,0.00,,,0.00,Wunderground v.1.15,2013-04-19 08:00:00,
2013-04-19 04:05:00,71.5,54.5,29.48,NNW,346,6.0,8.0,55,0.00,,,0.00,Wunderground v.1.15,2013-04-19 08:05:00,
2013-04-19 04:21:00,71.2,54.7,29.46,East,95,7.0,7.0,56,0.00,,,0.00,Wunderground v.1.15,2013-04-19 08:21:00,
2013-04-19 04:34:00,71.1,54.6,29.46,SE,135,6.0,21.0,56,0.00,,,0.00,Wunderground v.1.15,2013-04-19 08:34:00,
2013-04-19 04:40:00,71.0,55.0,29.45,SE,143,7.0,21.0,57,0.00,,,0.00,Wunderground v.1.15,2013-04-19 08:40:00,
2013-04-19 04:46:00,70.9,54.9,29.45,SSW,205,7.0,21.0,57,0.00,,,0.00,Wunderground v.1.15,2013-04-19 08:46:00,
2013-04-19 04:53:00,70.8,54.8,29.44,ESE,107,6.0,14.0,57,0.00,,,0.00,Wunderground v.1.15,2013-04-19 08:53:00,
2013-04-19 04:59:00,70.8,55.3,29.44,West,263,8.0,8.0,58,0.00,,,0.00,Wunderground v.1.15,2013-04-19 08:59:00,
2013-04-19 05:05:00,70.8,55.3,29.44,WSW,237,8.0,10.0,58,0.00,,,0.00,Wunderground v.1.15,2013-04-19 09:05:00,
2013-04-19 05:12:00,70.7,55.2,29.43,SSE,150,7.0,9.0,58,0.00,,,0.00,Wunderground v.1.15,2013-04-19 09:12:00,
2013-04-19 05:17:00,70.7,55.7,29.43,SE,142,7.0,17.0,59,0.00,,,0.00,Wunderground v.1.15,2013-04-19 09:17:00,
2013-04-19 05:23:00,70.6,55.6,29.42,SW,223,6.0,8.0,59,0.00,,,0.00,Wunderground v.1.15,2013-04-19 09:23:00,
2013-04-19 05:29:00,70.7,55.7,29.42,SSW,205,7.0,10.0,59,0.00,,,0.00,Wunderground v.1.15,2013-04-19 09:29:00,
2013-04-19 05:34:00,70.7,55.7,29.42,SW,229,8.0,14.0,59,0.00,,,0.00,Wunderground v.1.15,2013-04-19 09:34:00,
2013-04-19 05:39:00,70.6,56.0,29.42,East,100,7.0,12.0,60,0.00,,,0.00,Wunderground v.1.15,2013-04-19 09:39:00,
2013-04-19 05:45:00,70.7,56.1,29.42,SW,217,7.0,14.0,60,0.00,,,0.00,Wunderground v.1.15,2013-04-19 09:45:00,
2013-04-19 05:50:00,70.7,56.1,29.42,South,183,8.0,8.0,60,0.00,,,0.00,Wunderground v.1.15,2013-04-19 09:50:00,
2013-04-19 05:55:00,70.7,56.1,29.41,SSE,165,8.0,8.0,60,0.00,,,0.00,Wunderground v.1.15,2013-04-19 09:55:00,
2013-04-19 06:01:00,70.6,56.5,29.41,ESE,113,7.0,7.0,61,0.00,,,0.00,Wunderground v.1.15,2013-04-19 10:01:00,
2013-04-19 06:06:00,70.6,56.5,29.41,West,273,6.0,12.0,61,0.00,,,0.00,Wunderground v.1.15,2013-04-19 10:06:00,
2013-04-19 06:11:00,70.6,56.5,29.41,North,8,8.0,8.0,61,0.00,,,0.00,Wunderground v.1.15,2013-04-19 10:11:00,
2013-04-19 06:17:00,70.6,56.5,29.40,SW,233,8.0,9.0,61,0.00,,,0.00,Wunderground v.1.15,2013-04-19 10:17:00,
2013-04-19 06:22:00,70.7,56.6,29.40,ESE,117,7.0,7.0,61,0.00,,,0.00,Wunderground v.1.15,2013-04-19 10:22:00,
2013-04-19 06:27:00,70.7,56.6,29.40,West,273,7.0,8.0,61,0.00,,,0.00,Wunderground v.1.15,2013-04-19 10:27:00,
2013-04-19 06:32:00,70.6,56.9,29.40,SSW,211,7.0,9.0,62,0.00,,,0.00,Wunderground v.1.15,2013-04-19 10:32:00,
2013-04-19 06:40:00,70.7,57.0,29.40,SSW,193,8.0,12.0,62,0.00,,,0.00,Wunderground v.1.15,2013-04-19 10:40:00,
2013-04-19 06:46:00,70.7,57.0,29.40,South,190,8.0,8.0,62,0.00,,,0.00,Wunderground v.1.15,2013-04-19 10:46:00,
2013-04-19 06:51:00,70.7,57.0,29.40,SE,131,8.0,14.0,62,0.00,,,0.00,Wunderground v.1.15,2013-04-19 10:51:00,
2013-04-19 06:58:00,70.7,57.0,29.39,SSE,167,7.0,15.0,62,0.00,,,0.00,Wunderground v.1.15,2013-04-19 10:58:00,
2013-04-19 07:04:00,70.7,57.0,29.39,SE,142,7.0,11.0,62,0.00,,,0.00,Wunderground v.1.15,2013-04-19 11:04:00,
2013-04-19 07:09:00,70.7,57.0,29.39,SSE,158,8.0,15.0,62,0.00,,,0.00,Wunderground v.1.15,2013-04-19 11:09:00,
2013-04-19 07:15:00,70.7,57.0,29.39,SE,126,8.0,8.0,62,0.00,,,0.00,Wunderground v.1.15,2013-04-19 11:15:00,
2013-04-19 07:21:00,70.6,57.4,29.39,WSW,240,6.0,6.0,63,0.00,,,0.00,Wunderground v.1.15,2013-04-19 11:21:00,
2013-04-19 07:26:00,70.7,57.5,29.39,East,90,7.0,20.0,63,0.00,,,0.00,Wunderground v.1.15,2013-04-19 11:26:00,
2013-04-19 07:31:00,70.7,57.5,29.39,SSE,148,7.0,8.0,63,0.00,,,0.00,Wunderground v.1.15,2013-04-19 11:31:00,
2013-04-19 07:36:00,70.8,57.6,29.39,NW,305,7.0,12.0,63,0.00,,,0.00,Wunderground v.1.15,2013-04-19 11:36:00,
2013-04-19 07:43:00,70.8,58.0,29.39,WNW,285,8.0,9.0,64,0.00,,,0.00,Wunderground v.1.15,2013-04-19 11:43:00,
2013-04-19 07:50:00,70.2,58.3,29.39,ESE,121,7.0,14.0,66,0.00,,,0.00,Wunderground v.1.15,2013-04-19 11:50:00,
2013-04-19 07:56:00,69.3,58.7,29.39,SE,139,8.0,12.0,69,0.00,,,0.00,Wunderground v.1.15,2013-04-19 11:56:00,
2013-04-19 08:02:00,68.5,59.1,29.39,SW,235,9.0,15.0,72,0.00,,,0.01,Wunderground v.1.15,2013-04-19 12:02:00,
2013-04-19 08:07:00,67.5,59.3,29.38,ESE,102,8.0,15.0,75,0.08,,,0.02,Wunderground v.1.15,2013-04-19 12:07:00,
2013-04-19 08:12:00,66.6,59.5,29.38,ESE,114,6.0,9.0,78,0.11,,,0.03,Wunderground v.1.15,2013-04-19 12:12:00,
2013-04-19 08:18:00,65.8,59.5,29.37,SSW,192,7.0,9.0,80,0.10,,,0.04,Wunderground v.1.15,2013-04-19 12:18:00,
2013-04-19 08:24:00,65.2,59.6,29.37,SW,217,7.0,9.0,82,0.13,,,0.05,Wunderground v.1.15,2013-04-19 12:24:00,
2013-04-19 08:29:00,64.6,60.0,29.37,SE,124,6.0,9.0,85,0.26,,,0.09,Wunderground v.1.15,2013-04-19 12:29:00,
2013-04-19 08:35:00,64.1,59.8,29.36,SSE,162,7.0,12.0,86,0.15,,,0.10,Wunderground v.1.15,2013-04-19 12:35:00,
2013-04-19 08:42:00,63.8,60.2,29.34,ESE,121,8.0,9.0,88,0.08,,,0.11,Wunderground v.1.15,2013-04-19 12:42:00,
2013-04-19 08:48:00,63.6,60.0,29.32,WSW,255,8.0,12.0,88,0.08,,,0.11,Wunderground v.1.15,2013-04-19 12:48:00,
2013-04-19 08:53:00,63.8,60.2,29.34,SE,141,9.0,16.0,88,0.05,,,0.11,Wunderground v.1.15,2013-04-19 12:53:00,
2013-04-19 09:00:00,64.0,60.4,29.34,South,183,8.0,8.0,88,0.00,,,0.11,Wunderground v.1.15,2013-04-19 13:00:00,
2013-04-19 09:06:00,64.2,60.2,29.34,SE,128,7.0,8.0,87,0.00,,,0.11,Wunderground v.1.15,2013-04-19 13:06:00,
2013-04-19 09:11:00,64.4,60.4,29.34,South,170,7.0,7.0,87,0.00,,,0.11,Wunderground v.1.15,2013-04-19 13:11:00,
2013-04-19 09:16:00,64.6,60.6,29.34,WSW,239,8.0,13.0,87,0.00,,,0.11,Wunderground v.1.15,2013-04-19 13:16:00,
2013-04-19 09:21:00,64.8,60.5,29.34,ESE,115,8.0,11.0,86,0.00,,,0.11,Wunderground v.1.15,2013-04-19 13:21:00,
2013-04-19 09:27:00,64.9,60.6,29.34,ESE,110,7.0,11.0,86,0.00,,,0.11,Wunderground v.1.15,2013-04-19 13:27:00,
2013-04-19 09:32:00,65.0,60.7,29.34,South,187,6.0,11.0,86,0.00,,,0.11,Wunderground v.1.15,2013-04-19 13:32:00,
2013-04-19 09:37:00,64.9,60.6,29.34,ESE,119,6.0,11.0,86,0.00,,,0.11,Wunderground v.1.15,2013-04-19 13:37:00,
2013-04-19 09:42:00,64.7,60.7,29.34,SW,233,4.0,6.0,87,0.00,,,0.12,Wunderground v.1.15,2013-04-19 13:42:00,
2013-04-19 09:49:00,64.1,60.8,29.37,WNW,303,5.0,13.0,89,0.16,,,0.14,Wunderground v.1.15,2013-04-19 13:49:00,
2013-04-19 09:55:00,56.5,51.1,29.39,WNW,301,11.0,21.0,82,0.80,,,0.22,Wunderground v.1.15,2013-04-19 13:55:00,
2013-04-19 10:00:00,52.5,48.7,29.40,WNW,299,13.0,13.0,87,0.23,,,0.24,Wunderground v.1.15,2013-04-19 14:00:00,
2013-04-19 10:05:00,50.4,47.3,29.41,ENE,74,11.0,16.0,89,0.07,,,0.24,Wunderground v.1.15,2013-04-19 14:05:00,
2013-04-19 10:10:00,49.4,46.9,29.42,NW,315,10.0,10.0,91,0.05,,,0.24,Wunderground v.1.15,2013-04-19 14:10:00,
2013-04-19 10:19:00,48.3,45.8,29.42,NNW,340,8.0,18.0,91,0.00,,,0.24,Wunderground v.1.15,2013-04-19 14:19:00,
2013-04-19 10:25:00,47.7,45.2,29.45,WSW,246,9.0,16.0,91,0.00,,,0.24,Wunderground v.1.15,2013-04-19 14:25:00,
2013-04-19 12:04:00,43.5,41.0,29.52,West,276,8.0,8.0,91,0.00,,,0.28,Wunderground v.1.15,2013-04-19 16:04:00,
2013-04-19 12:09:00,43.3,40.8,29.52,WNW,293,8.0,9.0,91,0.00,,,0.28,Wunderground v.1.15,2013-04-19 16:09:00,
2013-04-19 12:16:00,43.2,40.8,29.54,WNW,287,8.0,17.0,91,0.00,,,0.28,Wunderground v.1.15,2013-04-19 16:16:00,
2013-04-19 12:21:00,43.1,40.7,29.53,SW,224,8.0,8.0,91,0.00,,,0.28,Wunderground v.1.15,2013-04-19 16:21:00,
2013-04-19 12:27:00,43.2,40.8,29.54,SSW,202,7.0,7.0,91,0.00,,,0.28,Wunderground v.1.15,2013-04-19 16:27:00,
2013-04-19 12:32:00,43.1,40.1,29.54,West,273,7.0,10.0,89,0.00,,,0.28,Wunderground v.1.15,2013-04-19 16:32:00,
2013-04-19 12:37:00,42.9,39.6,29.55,WSW,249,9.0,11.0,88,0.00,,,0.28,Wunderground v.1.15,2013-04-19 16:37:00,
2013-04-19 12:43:00,42.1,38.5,29.55,WNW,297,12.0,23.0,87,0.00,,,0.28,Wunderground v.1.15,2013-04-19 16:43:00,
2013-04-19 12:50:00,41.6,38.3,29.55,WSW,256,14.0,14.0,88,0.00,,,0.28,Wunderground v.1.15,2013-04-19 16:50:00,
2013-04-19 12:55:00,41.6,38.3,29.56,West,281,11.0,14.0,88,0.00,,,0.28,Wunderground v.1.15,2013-04-19 16:55:00,
2013-04-19 13:00:00,41.6,38.0,29.56,NW,305,7.0,9.0,87,0.00,,,0.28,Wunderground v.1.15,2013-04-19 17:00:00,
2013-04-19 13:06:00,41.7,37.8,29.57,WNW,291,8.0,13.0,86,0.00,,,0.28,Wunderground v.1.15,2013-04-19 17:06:00,
2013-04-19 13:11:00,41.8,37.6,29.56,WSW,253,10.0,14.0,85,0.00,,,0.28,Wunderground v.1.15,2013-04-19 17:11:00,
2013-04-19 13:17:00,42.1,37.3,29.56,West,276,10.0,14.0,83,0.00,,,0.28,Wunderground v.1.15,2013-04-19 17:17:00,
2013-04-19 13:23:00,42.5,37.7,29.57,WSW,248,8.0,15.0,83,0.00,,,0.28,Wunderground v.1.15,2013-04-19 17:23:00,
2013-04-19 13:28:00,42.7,38.2,29.57,WSW,246,6.0,15.0,84,0.00,,,0.28,Wunderground v.1.15,2013-04-19 17:28:00,
2013-04-19 13:35:00,43.4,37.6,29.57,WNW,294,5.0,8.0,80,0.00,,,0.28,Wunderground v.1.15,2013-04-19 17:35:00,
2013-04-19 13:40:00,43.4,36.7,29.57,WNW,294,8.0,8.0,77,0.00,,,0.28,Wunderground v.1.15,2013-04-19 17:40:00,
2013-04-19 13:45:00,43.3,36.6,29.57,WSW,250,9.0,16.0,77,0.00,,,0.28,Wunderground v.1.15,2013-04-19 17:45:00,
2013-04-19 13:50:00,43.2,36.5,29.58,WNW,283,8.0,8.0,77,0.00,,,0.28,Wunderground v.1.15,2013-04-19 17:50:00,
2013-04-19 13:57:00,43.4,36.0,29.57,West,271,8.0,19.0,75,0.00,,,0.28,Wunderground v.1.15,2013-04-19 17:57:00,
2013-04-19 14:03:00,43.3,35.6,29.58,West,274,9.0,12.0,74,0.00,,,0.28,Wunderground v.1.15,2013-04-19 18:03:00,
2013-04-19 14:08:00,43.3,35.6,29.58,WNW,284,11.0,18.0,74,0.00,,,0.28,Wunderground v.1.15,2013-04-19 18:08:00,
2013-04-19 14:14:00,43.3,35.6,29.58,SW,233,11.0,11.0,74,0.00,,,0.28,Wunderground v.1.15,2013-04-19 18:14:00,
2013-04-19 14:20:00,43.1,35.4,29.59,WNW,288,10.0,14.0,74,0.00,,,0.28,Wunderground v.1.15,2013-04-19 18:20:00,
2013-04-19 14:25:00,42.9,35.2,29.59,WNW,288,9.0,10.0,74,0.00,,,0.28,Wunderground v.1.15,2013-04-19 18:25:00,
2013-04-19 14:30:00,42.8,35.1,29.59,WSW,248,9.0,9.0,74,0.00,,,0.28,Wunderground v.1.15,2013-04-19 18:30:00,
2013-04-19 14:36:00,42.8,35.1,29.60,WSW,253,10.0,18.0,74,0.00,,,0.28,Wunderground v.1.15,2013-04-19 18:36:00,
2013-04-19 14:41:00,42.9,35.2,29.61,West,269,10.0,11.0,74,0.00,,,0.28,Wunderground v.1.15,2013-04-19 18:41:00,
2013-04-19 14:46:00,43.1,34.7,29.61,West,269,9.0,14.0,72,0.00,,,0.28,Wunderground v.1.15,2013-04-19 18:46:00,
2013-04-19 14:52:00,43.1,35.0,29.61,WSW,240,9.0,10.0,73,0.00,,,0.28,Wunderground v.1.15,2013-04-19 18:52:00,
2013-04-19 14:57:00,43.2,34.1,29.61,WNW,286,9.0,16.0,70,0.00,,,0.28,Wunderground v.1.15,2013-04-19 18:57:00,
2013-04-19 15:03:00,43.3,34.2,29.61,West,271,11.0,16.0,70,0.00,,,0.28,Wunderground v.1.15,2013-04-19 19:03:00,
2013-04-19 15:10:00,43.7,34.6,29.62,WNW,297,12.0,16.0,70,0.00,,,0.28,Wunderground v.1.15,2013-04-19 19:10:00,
2013-04-19 15:15:00,43.7,34.2,29.62,WSW,250,11.0,20.0,69,0.00,,,0.28,Wunderground v.1.15,2013-04-19 19:15:00,
2013-04-19 15:21:00,43.6,34.1,29.62,WNW,283,10.0,10.0,69,0.00,,,0.28,Wunderground v.1.15,2013-04-19 19:21:00,
2013-04-19 15:26:00,43.9,35.1,29.62,West,271,9.0,10.0,71,0.00,,,0.28,Wunderground v.1.15,2013-04-19 19:26:00,
2013-04-19 15:31:00,43.9,34.4,29.62,West,278,7.0,13.0,69,0.00,,,0.28,Wunderground v.1.15,2013-04-19 19:31:00,
2013-04-19 15:38:00,43.8,33.9,29.62,WSW,255,9.0,13.0,68,0.00,,,0.28,Wunderground v.1.15,2013-04-19 19:38:00,
2013-04-19 15:43:00,43.7,34.2,29.63,WSW,258,9.0,11.0,69,0.00,,,0.28,Wunderground v.1.15,2013-04-19 19:43:00,
2013-04-19 15:50:00,43.2,34.1,29.63,WSW,258,9.0,12.0,70,0.00,,,0.28,Wunderground v.1.15,2013-04-19 19:50:00,
2013-04-19 15:57:00,43.2,34.4,29.63,WSW,256,12.0,20.0,71,0.00,,,0.28,Wunderground v.1.15,2013-04-19 19:57:00,
2013-04-19 16:03:00,43.5,34.0,29.63,West,276,12.0,20.0,69,0.00,,,0.28,Wunderground v.1.15,2013-04-19 20:03:00,
2013-04-19 16:10:00,44.0,33.7,29.64,West,262,10.0,24.0,67,0.00,,,0.28,Wunderground v.1.15,2013-04-19 20:10:00,
2013-04-19 16:15:00,43.8,33.9,29.63,West,263,10.0,15.0,68,0.00,,,0.28,Wunderground v.1.15,2013-04-19 20:15:00,
2013-04-19 16:21:00,43.8,33.6,29.64,WSW,250,8.0,19.0,67,0.00,,,0.28,Wunderground v.1.15,2013-04-19 20:21:00,
2013-04-19 16:26:00,44.1,34.2,29.64,SSE,163,8.0,19.0,68,0.00,,,0.28,Wunderground v.1.15,2013-04-19 20:26:00,
2013-04-19 16:32:00,44.8,34.5,29.64,ESE,113,7.0,10.0,67,0.00,,,0.28,Wunderground v.1.15,2013-04-19 20:32:00,
2013-04-19 16:37:00,44.8,34.1,29.64,NW,323,7.0,11.0,66,0.00,,,0.28,Wunderground v.1.15,2013-04-19 20:37:00,
2013-04-19 16:42:00,44.4,33.4,29.65,West,263,7.0,21.0,65,0.00,,,0.28,Wunderground v.1.15,2013-04-19 20:42:00,
2013-04-19 16:48:00,44.2,33.9,29.65,West,279,9.0,21.0,67,0.00,,,0.28,Wunderground v.1.15,2013-04-19 20:48:00,
2013-04-19 16:53:00,44.2,33.6,29.66,WSW,255,8.0,15.0,66,0.00,,,0.28,Wunderground v.1.15,2013-04-19 20:53:00,
2013-04-19 17:00:00,43.6,33.0,29.66,West,264,13.0,13.0,66,0.00,,,0.28,Wunderground v.1.15,2013-04-19 21:00:00,
2013-04-19 17:07:00,43.6,33.7,29.67,SW,228,11.0,15.0,68,0.00,,,0.28,Wunderground v.1.15,2013-04-19 21:07:00,
2013-04-19 17:12:00,43.6,33.7,29.68,West,270,8.0,15.0,68,0.00,,,0.28,Wunderground v.1.15,2013-04-19 21:12:00,
2013-04-19 17:17:00,43.5,33.6,29.68,WSW,250,9.0,19.0,68,0.00,,,0.28,Wunderground v.1.15,2013-04-19 21:17:00,
2013-04-19 17:23:00,43.3,33.4,29.68,SSW,210,10.0,15.0,68,0.00,,,0.28,Wunderground v.1.15,2013-04-19 21:23:00,
2013-04-19 17:30:00,43.3,33.4,29.69,WNW,286,11.0,20.0,68,0.00,,,0.28,Wunderground v.1.15,2013-04-19 21:30:00,
2013-04-19 17:36:00,43.3,33.1,29.69,WNW,284,11.0,16.0,67,0.00,,,0.28,Wunderground v.1.15,2013-04-19 21:36:00,
2013-04-19 17:41:00,43.1,32.9,29.69,West,259,13.0,13.0,67,0.00,,,0.28,Wunderground v.1.15,2013-04-19 21:41:00,
2013-04-19 17:48:00,43.1,32.5,29.70,WSW,250,12.0,19.0,66,0.00,,,0.28,Wunderground v.1.15,2013-04-19 21:48:00,
2013-04-19 17:54:00,42.9,32.3,29.70,WSW,249,13.0,14.0,66,0.00,,,0.28,Wunderground v.1.15,2013-04-19 21:54:00,
2013-04-19 18:00:00,42.9,32.3,29.71,WNW,285,12.0,15.0,66,0.00,,,0.28,Wunderground v.1.15,2013-04-19 22:00:00,
2013-04-19 18:05:00,42.7,32.5,29.71,WSW,253,13.0,21.0,67,0.00,,,0.28,Wunderground v.1.15,2013-04-19 22:05:00,
2013-04-19 18:11:00,42.5,32.7,29.71,West,260,12.0,14.0,68,0.00,,,0.28,Wunderground v.1.15,2013-04-19 22:11:00,
2013-04-19 18:17:00,42.4,32.2,29.71,NW,308,10.0,14.0,67,0.00,,,0.28,Wunderground v.1.15,2013-04-19 22:17:00,
2013-04-19 18:22:00,42.5,32.7,29.71,West,264,8.0,12.0,68,0.00,,,0.28,Wunderground v.1.15,2013-04-19 22:22:00,
2013-04-19 18:28:00,42.5,32.3,29.71,WNW,283,6.0,16.0,67,0.00,,,0.28,Wunderground v.1.15,2013-04-19 22:28:00,
2013-04-19 18:33:00,42.5,31.9,29.70,WNW,296,7.0,9.0,66,0.00,,,0.28,Wunderground v.1.15,2013-04-19 22:33:00,
2013-04-19 18:38:00,42.5,31.9,29.71,WNW,290,8.0,15.0,66,0.00,,,0.28,Wunderground v.1.15,2013-04-19 22:38:00,
2013-04-19 18:44:00,42.4,31.8,29.71,WNW,290,8.0,9.0,66,0.00,,,0.28,Wunderground v.1.15,2013-04-19 22:44:00,
2013-04-19 18:50:00,42.3,32.5,29.72,West,281,8.0,14.0,68,0.00,,,0.28,Wunderground v.1.15,2013-04-19 22:50:00,
2013-04-19 18:55:00,42.2,32.0,29.73,WSW,243,8.0,14.0,67,0.00,,,0.28,Wunderground v.1.15,2013-04-19 22:55:00,
2013-04-19 19:00:00,42.0,31.8,29.73,West,266,10.0,10.0,67,0.00,,,0.28,Wunderground v.1.15,2013-04-19 23:00:00,
2013-04-19 19:06:00,42.0,31.8,29.73,West,260,12.0,14.0,67,0.00,,,0.28,Wunderground v.1.15,2013-04-19 23:06:00,
2013-04-19 19:13:00,42.0,32.2,29.73,WSW,243,8.0,10.0,68,0.00,,,0.28,Wunderground v.1.15,2013-04-19 23:13:00,
2013-04-19 19:20:00,42.0,31.8,29.72,WSW,252,7.0,15.0,67,0.00,,,0.28,Wunderground v.1.15,2013-04-19 23:20:00,
2013-04-19 19:25:00,42.0,31.8,29.73,WSW,243,8.0,12.0,67,0.00,,,0.28,Wunderground v.1.15,2013-04-19 23:25:00,
2013-04-19 19:32:00,41.9,31.7,29.74,South,169,6.0,6.0,67,0.00,,,0.28,Wunderground v.1.15,2013-04-19 23:32:00,
2013-04-19 19:38:00,41.8,32.0,29.74,WNW,293,8.0,11.0,68,0.00,,,0.28,Wunderground v.1.15,2013-04-19 23:38:00,
2013-04-19 19:44:00,41.8,32.0,29.74,WSW,253,7.0,15.0,68,0.00,,,0.28,Wunderground v.1.15,2013-04-19 23:44:00,
2013-04-19 19:50:00,41.8,31.6,29.74,SW,226,8.0,9.0,67,0.00,,,0.28,Wunderground v.1.15,2013-04-19 23:50:00,
2013-04-19 19:56:00,41.8,31.3,29.74,West,269,8.0,16.0,66,0.00,,,0.28,Wunderground v.1.15,2013-04-19 23:56:00,
2013-04-19 20:02:00,41.8,31.6,29.74,WNW,285,8.0,8.0,67,0.00,,,0.28,Wunderground v.1.15,2013-04-20 00:02:00,
2013-04-19 20:07:00,41.7,31.9,29.74,West,264,5.0,8.0,68,0.00,,,0.28,Wunderground v.1.15,2013-04-20 00:07:00,
2013-04-19 20:12:00,41.7,31.5,29.75,West,262,7.0,7.0,67,0.00,,,0.28,Wunderground v.1.15,2013-04-20 00:12:00,
2013-04-19 20:18:00,41.6,31.1,29.75,WSW,256,9.0,10.0,66,0.00,,,0.28,Wunderground v.1.15,2013-04-20 00:18:00,
2013-04-19 20:23:00,41.5,31.0,29.75,West,275,6.0,8.0,66,0.00,,,0.28,Wunderground v.1.15,2013-04-20 00:23:00,
2013-04-19 20:28:00,41.3,30.0,29.75,SW,232,6.0,12.0,64,0.00,,,0.28,Wunderground v.1.15,2013-04-20 00:28:00,
2013-04-19 20:34:00,41.2,30.3,29.76,WNW,293,9.0,15.0,65,0.00,,,0.28,Wunderground v.1.15,2013-04-20 00:34:00,
2013-04-19 20:40:00,41.1,30.2,29.76,West,262,9.0,11.0,65,0.00,,,0.28,Wunderground v.1.15,2013-04-20 00:40:00,
2013-04-19 20:46:00,41.0,30.1,29.76,SW,224,8.0,11.0,65,0.00,,,0.28,Wunderground v.1.15,2013-04-20 00:46:00,
2013-04-19 20:51:00,40.9,30.0,29.77,SSE,156,7.0,7.0,65,0.00,,,0.28,Wunderground v.1.15,2013-04-20 00:51:00,
2013-04-19 20:57:00,40.9,30.0,29.76,WNW,300,6.0,8.0,65,0.00,,,0.28,Wunderground v.1.15,2013-04-20 00:57:00,
2013-04-19 21:03:00,40.8,29.9,29.76,West,267,8.0,8.0,65,0.00,,,0.28,Wunderground v.1.15,2013-04-20 01:03:00,
2013-04-19 21:10:00,40.7,30.2,29.77,WSW,258,7.0,8.0,66,0.00,,,0.28,Wunderground v.1.15,2013-04-20 01:10:00,
2013-04-19 21:16:00,40.6,30.5,29.78,WNW,296,7.0,13.0,67,0.00,,,0.28,Wunderground v.1.15,2013-04-20 01:16:00,
2013-04-19 21:21:00,40.5,30.4,29.78,WSW,248,9.0,9.0,67,0.00,,,0.28,Wunderground v.1.15,2013-04-20 01:21:00,
2013-04-19 21:27:00,40.4,30.7,29.78,SW,232,8.0,10.0,68,0.00,,,0.28,Wunderground v.1.15,2013-04-20 01:27:00,
2013-04-19 21:33:00,40.4,30.7,29.78,WNW,293,7.0,8.0,68,0.00,,,0.28,Wunderground v.1.15,2013-04-20 01:33:00,
2013-04-19 21:40:00,40.3,30.9,29.78,WSW,239,6.0,10.0,69,0.00,,,0.28,Wunderground v.1.15,2013-04-20 01:40:00,
2013-04-19 21:45:00,40.3,30.9,29.79,West,270,6.0,10.0,69,0.00,,,0.28,Wunderground v.1.15,2013-04-20 01:45:00,
2013-04-19 21:50:00,40.3,30.9,29.79,West,263,4.0,4.0,69,0.00,,,0.28,Wunderground v.1.15,2013-04-20 01:50:00,
2013-04-19 21:55:00,40.2,30.8,29.79,WSW,250,4.0,9.0,69,0.00,,,0.28,Wunderground v.1.15,2013-04-20 01:55:00,
2013-04-19 22:00:00,40.1,30.7,29.80,North,1,5.0,5.0,69,0.00,,,0.28,Wunderground v.1.15,2013-04-20 02:00:00,
2013-04-19 22:07:00,40.1,30.4,29.80,WNW,297,7.0,11.0,68,0.00,,,0.28,Wunderground v.1.15,2013-04-20 02:07:00,
2013-04-19 22:14:00,40.1,30.4,29.81,SSW,212,8.0,8.0,68,0.00,,,0.28,Wunderground v.1.15,2013-04-20 02:14:00,
2013-04-19 22:20:00,40.1,30.0,29.80,WNW,282,7.0,10.0,67,0.00,,,0.28,Wunderground v.1.15,2013-04-20 02:20:00,
2013-04-19 22:25:00,40.1,29.6,29.80,WNW,285,8.0,14.0,66,0.00,,,0.28,Wunderground v.1.15,2013-04-20 02:25:00,
2013-04-19 22:31:00,40.0,29.2,29.80,SSW,203,10.0,10.0,65,0.00,,,0.28,Wunderground v.1.15,2013-04-20 02:31:00,
2013-04-19 22:37:00,40.0,29.6,29.80,WNW,290,8.0,10.0,66,0.00,,,0.28,Wunderground v.1.15,2013-04-20 02:37:00,
2013-04-19 22:42:00,39.9,29.5,29.80,West,269,6.0,8.0,66,0.00,,,0.28,Wunderground v.1.15,2013-04-20 02:42:00,
2013-04-19 22:48:00,39.9,29.5,29.81,WSW,246,4.0,12.0,66,0.00,,,0.28,Wunderground v.1.15,2013-04-20 02:48:00,
2013-04-19 22:53:00,39.8,29.0,29.80,West,278,5.0,5.0,65,0.00,,,0.28,Wunderground v.1.15,2013-04-20 02:53:00,
2013-04-19 23:00:00,39.8,29.0,29.80,WNW,302,5.0,8.0,65,0.00,,,0.28,Wunderground v.1.15,2013-04-20 03:00:00,
2013-04-19 23:07:00,39.8,28.6,29.81,West,264,6.0,10.0,64,0.00,,,0.28,Wunderground v.1.15,2013-04-20 03:07:00,
2013-04-19 23:13:00,39.9,28.7,29.80,West,260,7.0,7.0,64,0.00,,,0.28,Wunderground v.1.15,2013-04-20 03:13:00,
2013-04-19 23:19:00,39.8,29.0,29.81,WNW,286,5.0,8.0,65,0.00,,,0.28,Wunderground v.1.15,2013-04-20 03:19:00,
2013-04-19 23:25:00,39.7,28.9,29.81,WSW,256,5.0,7.0,65,0.00,,,0.28,Wunderground v.1.15,2013-04-20 03:25:00,
2013-04-19 23:31:00,39.7,29.3,29.81,SW,217,4.0,4.0,66,0.00,,,0.28,Wunderground v.1.15,2013-04-20 03:31:00,
2013-04-19 23:37:00,39.6,29.5,29.81,North,351,3.0,10.0,67,0.00,,,0.28,Wunderground v.1.15,2013-04-20 03:37:00,
2013-04-19 23:42:00,39.5,30.2,29.81,SSW,197,4.0,8.0,69,0.00,,,0.28,Wunderground v.1.15,2013-04-20 03:42:00,
2013-04-19 23:49:00,39.2,30.2,29.81,SW,236,6.0,6.0,70,0.00,,,0.28,Wunderground v.1.15,2013-04-20 03:49:00,
2013-04-19 23:55:00,39.2,30.2,29.81,WSW,255,6.0,12.0,70,0.00,,,0.28,Wunderground v.1.15,2013-04-20 03:55:00,